When you browse on this site, cookies collect data to enhance your experience and personalize the content and advertising you see.
Visit our Privacy Policy to learn more. By continuing to use the site, you agree to this use of cookies and data.
  • In Hungary
  • List of Countries
  • For 7 days
  • Water Temperature
  • Weather Map
  • News
  • Weather Widgets
  • user-avatar
    Login

    Hourly Weather Krivoy Kust

    Today, 17 September, Tuesday

    Time Temperature Precipitation Wind Pressure Humidity
    00:00 +9°C° 0 mm 6 mps 733 mmHg 85%
    01:00 +9°C° 0 mm 6 mps 733 mmHg 86%
    02:00 +8°C° 0 mm 6 mps 733 mmHg 87%
    03:00 +8°C° 0 mm 5 mps 733 mmHg 89%
    04:00 +8°C° 0 mm 5 mps 733 mmHg 90%
    05:00 +8°C° 0 mm 5 mps 733 mmHg 91%
    06:00 +7°C° 0 mm 5 mps 733 mmHg 92%
    07:00 +8°C° 0.1 mm 5 mps 733 mmHg 86%
    08:00 +9°C° 0.1 mm 6 mps 733 mmHg 80%
    09:00 +11°C° 0 mm 7 mps 732 mmHg 71%
    10:00 +11°C° 0.1 mm 7 mps 733 mmHg 66%
    11:00 +12°C° 0.1 mm 8 mps 733 mmHg 60%
    12:00 +12°C° 0.1 mm 8 mps 733 mmHg 55%
    13:00 +12°C° 0.1 mm 8 mps 733 mmHg 54%
    14:00 +13°C° 0.1 mm 8 mps 733 mmHg 53%
    15:00 +13°C° 0.1 mm 8 mps 733 mmHg 52%
    16:00 +12°C° 0 mm 7 mps 732 mmHg 57%
    17:00 +12°C° 0 mm 5 mps 732 mmHg 61%
    18:00 +11°C° 0 mm 4 mps 732 mmHg 65%
    19:00 +10°C° 0 mm 4 mps 733 mmHg 69%
    20:00 +8°C° 0 mm 4 mps 733 mmHg 73%
    21:00 +8°C° 0 mm 3 mps 733 mmHg 77%
    22:00 +8°C° 0 mm 3 mps 733 mmHg 79%
    23:00 +7°C° 0 mm 3 mps 733 mmHg 81%

    Tomorrow, 18 September, Wednesday

    Time Temperature Precipitation Wind Pressure Humidity
    00:00 +7°C° 0 mm 3 mps 733 mmHg 83%
    01:00 +7°C° 0 mm 3 mps 733 mmHg 82%
    02:00 +6°C° 0 mm 4 mps 733 mmHg 82%
    03:00 +6°C° 0 mm 4 mps 733 mmHg 82%
    04:00 +5°C° 0 mm 3 mps 733 mmHg 83%
    05:00 +5°C° 0 mm 3 mps 732 mmHg 84%
    06:00 +5°C° 0 mm 3 mps 732 mmHg 85%
    07:00 +7°C° 0.1 mm 3 mps 732 mmHg 81%
    08:00 +7°C° 0.1 mm 4 mps 732 mmHg 77%
    09:00 +8°C° 0.1 mm 4 mps 732 mmHg 73%
    10:00 +8°C° 0.4 mm 4 mps 731 mmHg 77%
    11:00 +8°C° 0.4 mm 4 mps 731 mmHg 81%
    12:00 +9°C° 0.4 mm 3 mps 730 mmHg 84%
    13:00 +9°C° 0.5 mm 3 mps 730 mmHg 84%
    14:00 +9°C° 0.5 mm 2 mps 729 mmHg 83%
    15:00 +10°C° 0.5 mm 1 mps 729 mmHg 83%
    16:00 +10°C° 0.2 mm 1 mps 729 mmHg 84%
    17:00 +10°C° 0.2 mm 1 mps 728 mmHg 85%
    18:00 +10°C° 0.2 mm 1 mps 728 mmHg 86%
    19:00 +8°C° 0 mm 2 mps 728 mmHg 89%
    20:00 +7°C° 0 mm 3 mps 728 mmHg 92%
    21:00 +5°C° 0 mm 3 mps 728 mmHg 95%
    22:00 +6°C° 0 mm 4 mps 729 mmHg 92%
    23:00 +6°C° 0 mm 4 mps 730 mmHg 90%

    Day after tomorrow, 19 September, Thursday

    Time Temperature Precipitation Wind Pressure Humidity
    00:00 +6°C° 0 mm 5 mps 730 mmHg 88%
    01:00 +6°C° 0 mm 5 mps 731 mmHg 90%
    02:00 +5°C° 0 mm 5 mps 732 mmHg 92%
    03:00 +3°C° 0 mm 5 mps 732 mmHg 93%
    04:00 +3°C° 0 mm 5 mps 733 mmHg 94%
    05:00 +4°C° 0 mm 4 mps 734 mmHg 94%
    06:00 +4°C° 0 mm 4 mps 734 mmHg 95%
    07:00 +5°C° 0 mm 5 mps 735 mmHg 93%
    08:00 +6°C° 0 mm 5 mps 736 mmHg 90%
    09:00 +5°C° 0 mm 6 mps 737 mmHg 88%
    10:00 +7°C° 0 mm 5 mps 737 mmHg 86%
    11:00 +7°C° 0 mm 5 mps 738 mmHg 85%
    12:00 +7°C° 0 mm 5 mps 738 mmHg 84%
    13:00 +8°C° 0 mm 5 mps 739 mmHg 79%
    14:00 +8°C° 0 mm 5 mps 739 mmHg 75%
    15:00 +9°C° 0 mm 5 mps 740 mmHg 71%
    16:00 +8°C° 0.1 mm 5 mps 740 mmHg 73%
    17:00 +8°C° 0.1 mm 4 mps 740 mmHg 75%
    18:00 +7°C° 0.1 mm 4 mps 740 mmHg 77%
    19:00 +6°C° 0 mm 4 mps 740 mmHg 80%
    20:00 +7°C° 0 mm 3 mps 740 mmHg 84%
    21:00 +5°C° 0 mm 3 mps 741 mmHg 87%
    22:00 +4°C° 0 mm 3 mps 741 mmHg 87%
    23:00 +5°C° 0 mm 2 mps 741 mmHg 88%

    20 September, Friday

    Time Temperature Precipitation Wind Pressure Humidity
    00:00 +5°C° 0 mm 2 mps 741 mmHg 88%
    01:00 +4°C° 0 mm 2 mps 741 mmHg 89%
    02:00 +4°C° 0 mm 2 mps 741 mmHg 90%
    03:00 +4°C° 0 mm 2 mps 741 mmHg 91%
    04:00 +4°C° 0 mm 2 mps 741 mmHg 91%
    05:00 +4°C° 0 mm 2 mps 741 mmHg 91%
    06:00 +4°C° 0 mm 2 mps 741 mmHg 90%
    07:00 +5°C° 0 mm 2 mps 741 mmHg 88%
    08:00 +5°C° 0 mm 2 mps 741 mmHg 85%
    09:00 +6°C° 0 mm 2 mps 741 mmHg 82%
    10:00 +7°C° 0.1 mm 2 mps 741 mmHg 76%
    11:00 +8°C° 0.1 mm 2 mps 741 mmHg 70%
    12:00 +8°C° 0.1 mm 2 mps 741 mmHg 64%
    13:00 +9°C° 0 mm 2 mps 741 mmHg 61%
    14:00 +9°C° 0 mm 3 mps 741 mmHg 58%
    15:00 +9°C° 0 mm 3 mps 741 mmHg 55%
    16:00 +8°C° 0 mm 3 mps 741 mmHg 60%
    17:00 +8°C° 0 mm 3 mps 741 mmHg 65%
    18:00 +7°C° 0 mm 2 mps 741 mmHg 70%
    19:00 +6°C° 0 mm 2 mps 741 mmHg 72%
    20:00 +6°C° 0 mm 2 mps 742 mmHg 73%
    21:00 +5°C° 0 mm 2 mps 742 mmHg 74%
    22:00 +4°C° 0 mm 2 mps 742 mmHg 74%
    23:00 +4°C° 0 mm 2 mps 742 mmHg 74%

    21 September, Saturday

    Time Temperature Precipitation Wind Pressure Humidity
    00:00 +4°C° 0 mm 2 mps 742 mmHg 74%
    01:00 +3°C° 0 mm 2 mps 742 mmHg 75%
    02:00 +3°C° 0 mm 2 mps 743 mmHg 76%
    03:00 +3°C° 0 mm 2 mps 743 mmHg 77%
    04:00 +3°C° 0 mm 2 mps 743 mmHg 80%
    05:00 +1°C° 0 mm 3 mps 743 mmHg 82%
    06:00 +1°C° 0 mm 3 mps 743 mmHg 84%
    07:00 +2°C° 0 mm 3 mps 744 mmHg 81%
    08:00 +3°C° 0 mm 4 mps 744 mmHg 77%
    09:00 +3°C° 0 mm 5 mps 744 mmHg 74%
    10:00 +5°C° 0 mm 5 mps 744 mmHg 67%
    11:00 +6°C° 0 mm 5 mps 745 mmHg 60%
    12:00 +7°C° 0 mm 5 mps 745 mmHg 53%
    13:00 +8°C° 0 mm 5 mps 745 mmHg 51%
    14:00 +8°C° 0 mm 5 mps 745 mmHg 50%
    15:00 +8°C° 0 mm 5 mps 744 mmHg 49%
    16:00 +7°C° 0 mm 4 mps 745 mmHg 53%
    17:00 +7°C° 0 mm 3 mps 745 mmHg 57%
    18:00 +5°C° 0 mm 3 mps 745 mmHg 61%
    19:00 +5°C° 0 mm 2 mps 745 mmHg 63%
    20:00 +4°C° 0 mm 2 mps 746 mmHg 64%
    21:00 +3°C° 0 mm 2 mps 746 mmHg 66%
    22:00 +3°C° 0 mm 2 mps 746 mmHg 66%
    23:00 +3°C° 0 mm 2 mps 746 mmHg 67%

    22 September, Sunday

    Time Temperature Precipitation Wind Pressure Humidity
    00:00 +2°C° 0 mm 2 mps 746 mmHg 67%
    01:00 +2°C° 0 mm 2 mps 745 mmHg 68%
    02:00 +1°C° 0 mm 3 mps 745 mmHg 68%
    03:00 +1°C° 0 mm 3 mps 744 mmHg 69%
    04:00 +1°C° 0 mm 3 mps 743 mmHg 69%
    05:00 +1°C° 0 mm 4 mps 743 mmHg 70%
    06:00 +1°C° 0 mm 5 mps 742 mmHg 70%
    07:00 +1°C° 0.5 mm 6 mps 741 mmHg 77%
    08:00 +1°C° 0.5 mm 6 mps 739 mmHg 84%
    09:00 +2°C° 0.5 mm 7 mps 738 mmHg 92%
    10:00 +3°C° 1.2 mm 7 mps 737 mmHg 93%
    11:00 +4°C° 1.2 mm 7 mps 736 mmHg 93%
    12:00 +5°C° 1.2 mm 7 mps 735 mmHg 94%
    13:00 +6°C° 0.6 mm 8 mps 734 mmHg 88%
    14:00 +8°C° 0.6 mm 9 mps 734 mmHg 82%
    15:00 +9°C° 0.6 mm 10 mps 733 mmHg 75%
    16:00 +7°C° 0.1 mm 11 mps 733 mmHg 75%
    17:00 +6°C° 0.1 mm 11 mps 734 mmHg 74%
    18:00 +3°C° 0.1 mm 11 mps 734 mmHg 73%
    19:00 +3°C° 0 mm 11 mps 735 mmHg 76%
    20:00 +2°C° 0 mm 11 mps 736 mmHg 79%
    21:00 +2°C° 0 mm 11 mps 738 mmHg 82%
    22:00 +1°C° 0 mm 11 mps 739 mmHg 81%
    23:00 +1°C° 0 mm 10 mps 740 mmHg 81%
    Show more